"Pseudo-MPEC" for C05L201

Created 2019 Mar 17 18:18:08 UT using Find_Orb

Click here for an explanation of pseudo-MPECs

 
 Astrometry: 
     C05L201  C2019 03 15.45206 15 06 44.96 -02 51 23.1    ~3FBm 19.1 GVNEOCP703
     C05L201  C2019 03 15.45735 15 06 45.38 -02 53 14.5    ~3FBm 19.3 GVNEOCP703
     C05L201  C2019 03 15.46263 15 06 45.85 -02 55 02.9    ~3FBm 19.5 GVNEOCP703
     C05L201  C2019 03 15.47070 15 06 46.42 -02 57 50.8    ~3FBm 20.6 GVNEOCP703
     C05L201  C2019 03 15.51050 15 06 49.78 -03 11 35.7    ~3FCX 19.9 GVNEOCP703
     C05L201  C2019 03 15.51090 15 06 49.81 -03 11 44.2    ~3FCX 19.5 GVNEOCP703
     C05L201  C2019 03 15.51131 15 06 49.80 -03 11 52.0    ~3FCX 19.4 GVNEOCP703
     C05L201  C2019 03 15.51172 15 06 49.88 -03 12 00.5    ~3FCX 19.7 GVNEOCP703
     C05L201 KC2019 03 161]Zy]+!*wX+CNtm#^)n9PAstrometryAw:d1ot#-u4D/3'nifk!KH21
     C05L201 KC2019 03 16eFw;BuU,,%Zcf/Q0k2a1Wc]F8((kfredacted;Gkd3_KsEPSb941H21
     C05L201 KC2019 03 16@$tI`?i-1SIxltrk%%SuvF0XN1Q1i3RGaclickUa[DnFRqDxkpDJH21
     C05L201 pC2019 03 17\V*ma;6NG7ixJ!lpS=o+ceO3;'3A%i$5sKPibXjyGGRLHxhereBUL01
     C05L201 pC2019 03 17lLqnPIL?wwI@9'0mNWE%wwZfor9huryee6ENfn_kQ.1E5v8=S7r3L01
     C05L201 pC2019 03 17k-eqCdEcYyH$PVjuEfgcsX[,G*TOuv)f^I7[36yl5GKfX;;W[]@TL01
     C05L201 pC2019 03 17k5EuU]xexplanationm?1]rXs?)9QxTc3k]A-9\I,+ouQDQ4Bx-SL01
     C05L201 KC2019 03 17.11072515 10 47.13 -11 27 17.2    ~3H3I 19.6 GVNEOCPJ95
     C05L201 KC2019 03 17.11750615 10 47.66 -11 29 08.9    ~3H3I 19.5 GVNEOCPJ95
     C05L201 KC2019 03 17.12395615 10 48.11 -11 30 55.5    ~3H3I 19.2 GVNEOCPJ95
     C05L201  C2019 03 17.31639 15 11 19.69 -12 22 15.9    ~3H83 20.9 GVNEOCPI52
     C05L201  C2019 03 17.31694 15 11 19.78 -12 22 24.2    ~3H83 20.9 GVNEOCPI52
     C05L201  C2019 03 17.31749 15 11 19.78 -12 22 33.9    ~3H83       VNEOCPI52
     C05L201  C2019 03 17.31805 15 11 19.88 -12 22 41.6    ~3H83       VNEOCPI52

Station data:
(703) Catalina Sky Survey  (N32.417006 W110.732640)  US/Arizona.  Observers
   B. M. Africano, E. J. Christensen, G. A. Farneth, D. C. Fuls, A. R. Gibbs,
   A. D. Grauer, H. Groeller, J. A. Johnson, R. A. Kowalski, S. M. Larson, G.
   J. Leonard, R. L. Seaman, F. C. Shelly. 0.68 m Schmidt + 10K CCD.
(H21) Astronomical Research Observatory, Westfield  (N39.483057 W87.968270)
   US/Illinois. 0.76-m f/3.0 astrograph + CCD.
(I52) Steward Observatory, Mt. Lemmon Station  (N32.442547 W110.788920)
   US/Arizona.  Observers B. M. Africano, E. J. Christensen, G. A. Farneth,
   D. C. Fuls, A. R. Gibbs, A. D. Grauer, H. Groeller, J. A. Johnson, R. A.
   Kowalski, S. M. Larson, G. J. Leonard, R. L. Seaman, F. C. Shelly. 1.0-m
   reflector + CCD.
(J95) Great Shefford  (N51.474969 W1.447003)  UK.  Observer P. Birtwhistle.
   0.40-m f/6.0 Schmidt-Cassegrain + CCD.
(L01) Višnjan Observatory, Tičan  (N45.290900 E13.749300)  Croatia.
   Observers K. Korlević, E. Pettarin. Measurer E. Pettarin. 1.0-m f/2.9
   reflector + CCD.

Orbital elements:  C05L201
   Perihelion 2019 Mar 3.959965 +/- 0.00665 TT = 23:02:21 (JD 2458546.459965)
Epoch 2019 Mar 17.0 TT = JDT 2458559.5   Earth MOID: 0.0249   AutoNEOCP
M   4.19182377 +/- 0.022            (J2000 ecliptic)
n   0.32145802 +/- 0.00156          Peri.  162.46322 +/- 0.0027
a   2.11050572 +/- 0.00684          Node   359.68955 +/- 0.0052
e   0.5223499 +/- 0.00153           Incl.    7.82378 +/- 0.016
P   3.07                   H 25.0   G  0.15   U  8.4  
q 1.00808321 +/- 4.45e-5    Q 3.21292824 +/- 0.0136
From 22 observations 2019 Mar. 15-17 (44.8 hr); mean residual 0".40
Residuals in arcseconds: 
190315 703  .05+  .17+    190316 H21  .25+  .04+    190317 J95  .20+  .19+    
190315 703  .11-  1.0-    190316 H21  .42+  .24+    190317 J95  .10-  .28+    
190315 703  .49+  .44+    190316 H21  .30+  .03+    190317 I52  .50-  .44-    
190315 703  .82-  .32+    190317 L01  .73+  .26-    190317 I52  .21+  .18+    
190315 703  .11+  .15-    190317 L01  .33+  .64-    190317 I52  .40-  .59-    
190315 703  .05+  .39-    190317 L01  .09-  .04-    190317 I52  .45+  .80+    
190315 703  .62-  .27+    190317 L01  .17-  .30+    
190315 703  .05+  .24+    190317 J95  .26-  .42-    

Ephemerides (geocentric):
Date (UTC) HH   RA              Dec         delta   r     elong  mag " sig PA
---- -- -- --  -------------   -----------  ------ ------ -----  --- ---- ---
2019 03 17 18  15 12 02.483   -14 12 32.63  .04443 1.0224 127.0 20.2 .436 155
2019 03 17 19  15 12 07.284   -14 22 58.93  .04457 1.0225 127.0 20.2 .433 155
2019 03 17 20  15 12 12.055   -14 33 21.44  .04470 1.0226 127.0 20.2 .431 154
2019 03 17 21  15 12 16.796   -14 43 40.20  .04483 1.0226 127.0 20.2 .428 154
2019 03 17 22  15 12 21.507   -14 53 55.21  .04497 1.0227 127.0 20.2 .426 153
2019 03 17 23  15 12 26.188   -15 04 06.51  .04510 1.0228 127.0 20.2 .423 152
2019 03 18 00  15 12 30.839   -15 14 14.12  .04524 1.0229 126.9 20.2 .421 152
2019 03 18 01  15 12 35.460   -15 24 18.06  .04538 1.0230 126.9 20.3 .418 151
2019 03 18 02  15 12 40.053   -15 34 18.34  .04551 1.0231 126.9 20.3 .415 150
2019 03 18 03  15 12 44.616   -15 44 15.00  .04565 1.0232 126.9 20.3 .412 149
2019 03 18 04  15 12 49.150   -15 54 08.05  .04579 1.0232 126.9 20.3 .409 149
2019 03 18 05  15 12 53.655   -16 03 57.52  .04592 1.0233 126.9 20.3 .406 148
2019 03 18 06  15 12 58.131   -16 13 43.43  .04606 1.0234 126.8 20.3 .403 147
2019 03 18 07  15 13 02.579   -16 23 25.80  .04620 1.0235 126.8 20.3 .400 147
2019 03 18 08  15 13 06.999   -16 33 04.65  .04634 1.0236 126.8 20.3 .396 146
2019 03 18 09  15 13 11.390   -16 42 40.00  .04648 1.0237 126.8 20.3 .393 145
2019 03 18 10  15 13 15.754   -16 52 11.88  .04662 1.0238 126.8 20.3 .390 144
2019 03 18 11  15 13 20.089   -17 01 40.31  .04676 1.0239 126.8 20.3 .387 143
2019 03 18 12  15 13 24.397   -17 11 05.31  .04690 1.0240 126.8 20.3 .383 143
2019 03 18 13  15 13 28.677   -17 20 26.89  .04704 1.0240 126.7 20.3 .380 142
2019 03 18 14  15 13 32.929   -17 29 45.09  .04718 1.0241 126.7 20.3 .376 141
2019 03 18 15  15 13 37.155   -17 38 59.93  .04732 1.0242 126.7 20.3 .373 140
2019 03 18 16  15 13 41.353   -17 48 11.42  .04746 1.0243 126.7 20.4 .370 139
2019 03 18 17  15 13 45.524   -17 57 19.59  .04760 1.0244 126.7 20.4 .366 138
2019 03 18 18  15 13 49.669   -18 06 24.46  .04774 1.0245 126.7 20.4 .363 137
2019 03 18 19  15 13 53.786   -18 15 26.04  .04789 1.0246 126.7 20.4 .359 136
2019 03 18 20  15 13 57.878   -18 24 24.37  .04803 1.0247 126.6 20.4 .356 135
2019 03 18 21  15 14 01.942   -18 33 19.46  .04817 1.0248 126.6 20.4 .353 134
2019 03 18 22  15 14 05.981   -18 42 11.34  .04832 1.0249 126.6 20.4 .349 133
2019 03 18 23  15 14 09.993   -18 51 00.02  .04846 1.0250 126.6 20.4 .346 132
2019 03 19 00  15 14 13.980   -18 59 45.53  .04860 1.0251 126.6 20.4 .343 131
2019 03 19 01  15 14 17.940   -19 08 27.88  .04875 1.0251 126.6 20.4 .340 130
2019 03 19 02  15 14 21.875   -19 17 07.10  .04889 1.0252 126.6 20.4 .336 129
2019 03 19 03  15 14 25.784   -19 25 43.21  .04904 1.0253 126.5 20.4 .333 128
2019 03 19 04  15 14 29.668   -19 34 16.23  .04918 1.0254 126.5 20.4 .330 127
2019 03 19 05  15 14 33.526   -19 42 46.18  .04933 1.0255 126.5 20.4 .327 125
2019 03 19 06  15 14 37.360   -19 51 13.08  .04948 1.0256 126.5 20.5 .324 124
2019 03 19 07  15 14 41.168   -19 59 36.95  .04962 1.0257 126.5 20.5 .321 123
2019 03 19 08  15 14 44.951   -20 07 57.81  .04977 1.0258 126.5 20.5 .319 122
2019 03 19 09  15 14 48.710   -20 16 15.68  .04992 1.0259 126.5 20.5 .316 120
2019 03 19 10  15 14 52.444   -20 24 30.58  .05006 1.0260 126.4 20.5 .313 119
2019 03 19 11  15 14 56.153   -20 32 42.54  .05021 1.0261 126.4 20.5 .311 118
2019 03 19 12  15 14 59.838   -20 40 51.56  .05036 1.0262 126.4 20.5 .309 116
2019 03 19 13  15 15 03.499   -20 48 57.68  .05051 1.0263 126.4 20.5 .306 115
2019 03 19 14  15 15 07.135   -20 57 00.91  .05065 1.0264 126.4 20.5 .304 113
2019 03 19 15  15 15 10.748   -21 05 01.27  .05080 1.0265 126.4 20.5 .303 112
2019 03 19 16  15 15 14.336   -21 12 58.78  .05095 1.0266 126.4 20.5 .301 110
2019 03 19 17  15 15 17.901   -21 20 53.45  .05110 1.0267 126.4 20.5 .299 109